{"data":{"norad_id":57105,"intl_designator":"2023-090E","name":"STARLINK-6097","alt_names":[],"object_type":"PAYLOAD","status":"ACTIVE","operator":null,"country":"US","launch_date":"2023-06-23","launch_site_code":"AFETR","launch_vehicle":null,"mission":null,"orbit_class":"UNKNOWN","rcs_meters":null,"size_class":null,"mass_kg":null,"dimensions":null,"purposes":["comms"],"wikipedia_slug":null,"has_3d_model":false,"image_url":null,"decayed_at":null,"tle_current":{"epoch":"2026-09-20T11:58:51.070080Z","epoch_age_seconds":121070,"freshness":"FRESH","line1":"1 57105U 23090E   26263.49920220  .00001248  00000+0  54879-4 0  9990","line2":"2 57105  43.0010 261.5759 0000868 279.4379  80.6375 15.27561091180124","mean_motion":15.27561091,"eccentricity":8.68e-5,"inclination_deg":43.001,"raan_deg":261.5759,"arg_perigee_deg":279.4379,"mean_anomaly_deg":80.6375,"bstar":5.4879e-5,"rev_number":18012,"period_min":94.267915599848,"perigee_km":482.51016110436,"apogee_km":483.70127284003,"semimajor_km":6861.2427169722,"source":"CELESTRAK","updated_at":"2026-09-21T09:00:33.558620Z"}}}